Time,TemperatureF,DewpointF,PressureIn,WindDirection,WindDirectionDegrees,WindSpeedMPH,WindSpeedGustMPH,Humidity,HourlyPrecipIn,Conditions,Clouds,dailyrainin,SoftwareType,DateUTC
2013-05-19 11:30:00,71.6,44.0,0.00,SE,144,12.8,12.8,37,0.00,,,0.00,VWS V13.01,2013-05-19 16:30:00,
2013-05-19 11:31:00,71.6,44.0,0.00,South,169,15.4,15.4,37,0.04,,,0.00,VWS V13.01,2013-05-19 16:31:00,
2013-05-19 11:32:00,71.8,44.1,0.00,South,170,12.8,17.4,37,0.04,,,0.00,VWS V13.01,2013-05-19 16:32:00,
2013-05-19 11:33:00,72.0,44.3,0.00,SSE,150,12.8,14.5,37,0.04,,,0.00,VWS V13.01,2013-05-19 16:33:00,
2013-05-19 11:34:00,72.0,44.3,0.00,South,171,16.3,16.3,37,0.04,,,0.00,VWS V13.01,2013-05-19 16:34:00,
2013-05-19 11:35:00,72.0,43.6,0.00,SE,140,14.5,14.5,36,0.04,,,0.00,VWS V13.01,2013-05-19 16:35:00,
2013-05-19 11:36:00,72.0,43.6,0.00,SE,146,13.2,17.0,36,0.04,,,0.00,VWS V13.01,2013-05-19 16:36:00,
2013-05-19 11:37:00,72.1,43.7,0.00,SE,139,10.1,13.2,36,0.04,,,0.00,VWS V13.01,2013-05-19 16:37:00,
2013-05-19 11:38:00,72.1,43.7,0.00,ESE,118,8.3,10.1,36,0.04,,,0.00,VWS V13.01,2013-05-19 16:38:00,
2013-05-19 11:39:00,72.3,43.9,0.00,SSE,153,11.0,11.0,36,0.04,,,0.00,VWS V13.01,2013-05-19 16:39:00,
2013-05-19 11:40:00,72.3,43.9,0.00,SE,128,11.0,13.2,36,0.04,,,0.00,VWS V13.01,2013-05-19 16:40:00,
2013-05-19 11:41:00,72.5,44.1,0.00,SSE,147,13.2,13.2,36,0.04,,,0.00,VWS V13.01,2013-05-19 16:41:00,
2013-05-19 11:42:00,72.5,44.1,0.00,SSE,163,10.1,13.2,36,0.04,,,0.00,VWS V13.01,2013-05-19 16:42:00,
2013-05-19 11:43:00,72.5,44.1,0.00,SE,145,13.2,16.3,36,0.04,,,0.00,VWS V13.01,2013-05-19 16:43:00,
2013-05-19 11:44:00,72.5,43.3,0.00,ESE,115,11.9,16.8,35,0.04,,,0.00,VWS V13.01,2013-05-19 16:44:00,
2013-05-19 11:45:00,72.7,43.5,0.00,SSE,150,13.2,13.2,35,0.04,,,0.00,VWS V13.01,2013-05-19 16:45:00,
2013-05-19 11:46:00,72.7,43.5,0.00,SSE,150,10.5,13.2,35,0.04,,,0.00,VWS V13.01,2013-05-19 16:46:00,
2013-05-19 11:47:00,72.7,43.5,0.00,South,188,19.7,19.7,35,0.04,,,0.00,VWS V13.01,2013-05-19 16:47:00,
2013-05-19 11:48:00,72.9,43.6,0.00,SE,144,10.5,23.3,35,0.04,,,0.00,VWS V13.01,2013-05-19 16:48:00,
2013-05-19 11:49:00,72.9,43.6,0.00,SSE,162,15.9,15.9,35,0.04,,,0.00,VWS V13.01,2013-05-19 16:49:00,
2013-05-19 11:50:00,73.0,43.8,0.00,SE,135,12.3,12.3,35,0.04,,,0.00,VWS V13.01,2013-05-19 16:50:00,
2013-05-19 11:51:00,73.0,43.8,0.00,ESE,123,10.5,12.8,35,0.04,,,0.00,VWS V13.01,2013-05-19 16:51:00,
2013-05-19 11:52:00,73.0,43.8,0.00,SE,144,11.0,12.8,35,0.04,,,0.00,VWS V13.01,2013-05-19 16:52:00,
2013-05-19 11:53:00,73.0,43.8,0.00,ESE,121,13.6,15.4,35,0.04,,,0.00,VWS V13.01,2013-05-19 16:53:00,
2013-05-19 11:54:00,73.0,43.8,0.00,SSE,163,12.8,13.6,35,0.04,,,0.00,VWS V13.01,2013-05-19 16:54:00,
2013-05-19 11:55:00,73.0,43.8,0.00,SSE,161,13.2,13.2,35,0.04,,,0.00,VWS V13.01,2013-05-19 16:55:00,
2013-05-19 11:56:00,73.0,43.8,0.00,SSE,167,12.8,13.2,35,0.04,,,0.00,VWS V13.01,2013-05-19 16:56:00,
2013-05-19 11:57:00,73.0,43.8,0.00,SE,125,16.8,16.8,35,0.04,,,0.00,VWS V13.01,2013-05-19 16:57:00,
2013-05-19 11:58:00,73.0,43.8,0.00,SE,136,15.0,17.4,35,0.04,,,0.00,VWS V13.01,2013-05-19 16:58:00,
2013-05-19 11:59:00,73.2,44.0,0.00,SE,133,8.7,15.0,35,0.04,,,0.00,VWS V13.01,2013-05-19 16:59:00,
2013-05-19 12:00:00,73.2,44.0,0.00,South,173,13.2,13.2,35,0.04,,,0.00,VWS V13.01,2013-05-19 17:00:00,
2013-05-19 12:01:00,73.2,43.2,0.00,SE,145,16.8,16.8,34,0.04,,,0.00,VWS V13.01,2013-05-19 17:01:00,
2013-05-19 12:02:00,73.6,42.7,0.00,SSE,162,15.0,20.6,33,0.04,,,0.00,VWS V13.01,2013-05-19 17:02:00,
2013-05-19 12:03:00,73.6,42.7,0.00,ESE,123,12.8,17.4,33,0.04,,,0.00,VWS V13.01,2013-05-19 17:03:00,
2013-05-19 12:04:00,73.6,42.7,0.00,SSE,167,12.3,12.8,33,0.04,,,0.00,VWS V13.01,2013-05-19 17:04:00,
2013-05-19 12:05:00,73.8,42.9,0.00,SE,146,8.3,10.1,33,0.04,,,0.00,VWS V13.01,2013-05-19 17:05:00,
2013-05-19 12:06:00,73.8,42.9,0.00,SSE,167,13.2,13.6,33,0.04,,,0.00,VWS V13.01,2013-05-19 17:06:00,
2013-05-19 12:07:00,73.8,42.9,0.00,SSE,149,12.8,17.9,33,0.04,,,0.00,VWS V13.01,2013-05-19 17:07:00,
2013-05-19 12:08:00,73.8,42.9,0.00,SSE,157,8.7,13.2,33,0.04,,,0.00,VWS V13.01,2013-05-19 17:08:00,
2013-05-19 12:09:00,73.9,42.2,0.00,SSE,147,11.4,12.8,32,0.04,,,0.00,VWS V13.01,2013-05-19 17:09:00,
2013-05-19 12:10:00,73.9,42.2,0.00,SSE,168,10.1,10.1,32,0.04,,,0.00,VWS V13.01,2013-05-19 17:10:00,
2013-05-19 12:11:00,73.9,42.2,0.00,South,176,15.4,15.4,32,0.04,,,0.00,VWS V13.01,2013-05-19 17:11:00,
2013-05-19 12:12:00,73.9,42.2,0.00,South,183,12.8,15.4,32,0.04,,,0.00,VWS V13.01,2013-05-19 17:12:00,
2013-05-19 12:13:00,73.9,42.2,0.00,South,176,11.0,12.8,32,0.04,,,0.00,VWS V13.01,2013-05-19 17:13:00,
2013-05-19 12:14:00,74.1,42.4,0.00,SE,137,8.7,11.0,32,0.04,,,0.00,VWS V13.01,2013-05-19 17:14:00,
2013-05-19 12:15:00,74.1,42.4,0.00,SSE,156,8.7,8.7,32,0.04,,,0.00,VWS V13.01,2013-05-19 17:15:00,
2013-05-19 12:16:00,74.3,42.6,0.00,South,169,11.4,13.6,32,0.04,,,0.00,VWS V13.01,2013-05-19 17:16:00,
2013-05-19 12:17:00,74.3,42.6,0.00,SSE,165,15.0,15.0,32,0.04,,,0.00,VWS V13.01,2013-05-19 17:17:00,
2013-05-19 12:18:00,74.3,42.6,0.00,SE,145,9.2,15.0,32,0.04,,,0.00,VWS V13.01,2013-05-19 17:18:00,
2013-05-19 12:19:00,74.5,42.7,0.00,SE,145,15.0,15.0,32,0.04,,,0.00,VWS V13.01,2013-05-19 17:19:00,
2013-05-19 12:20:00,74.5,42.7,0.00,SSE,148,15.0,15.0,32,0.04,,,0.00,VWS V13.01,2013-05-19 17:20:00,
2013-05-19 12:21:00,74.5,42.7,0.00,SSE,151,12.3,15.0,32,0.04,,,0.00,VWS V13.01,2013-05-19 17:21:00,
2013-05-19 12:22:00,74.7,42.9,0.00,SSE,158,13.2,13.2,32,0.04,,,0.00,VWS V13.01,2013-05-19 17:22:00,
2013-05-19 12:23:00,74.7,42.9,0.00,SE,138,12.8,13.2,32,0.04,,,0.00,VWS V13.01,2013-05-19 17:23:00,
2013-05-19 12:24:00,74.7,42.9,0.00,SSE,164,11.0,12.8,32,0.04,,,0.00,VWS V13.01,2013-05-19 17:24:00,
2013-05-19 12:25:00,74.7,42.9,0.00,South,185,8.3,11.0,32,0.04,,,0.00,VWS V13.01,2013-05-19 17:25:00,
2013-05-19 12:26:00,74.7,42.9,0.00,SSE,167,11.0,13.2,32,0.04,,,0.00,VWS V13.01,2013-05-19 17:26:00,
2013-05-19 12:27:00,74.7,42.9,0.00,SE,138,8.3,15.0,32,0.04,,,0.00,VWS V13.01,2013-05-19 17:27:00,
2013-05-19 12:28:00,74.7,42.9,0.00,SSW,198,13.6,16.8,32,0.04,,,0.00,VWS V13.01,2013-05-19 17:28:00,
2013-05-19 12:29:00,74.7,42.9,0.00,ESE,118,9.2,13.6,32,0.04,,,0.00,VWS V13.01,2013-05-19 17:29:00,
2013-05-19 12:30:00,74.7,42.9,0.00,South,176,11.0,13.2,32,0.04,,,0.00,VWS V13.01,2013-05-19 17:30:00,
2013-05-19 12:31:00,74.7,42.9,0.00,SE,131,13.2,13.2,32,0.00,,,0.00,VWS V13.01,2013-05-19 17:31:00,
2013-05-19 12:32:00,74.8,42.2,0.00,SSE,158,15.4,15.4,31,0.00,,,0.00,VWS V13.01,2013-05-19 17:32:00,
2013-05-19 12:33:00,75.0,42.4,0.00,SSE,159,15.4,15.4,31,0.00,,,0.00,VWS V13.01,2013-05-19 17:33:00,
2013-05-19 12:34:00,75.0,42.4,0.00,SSE,154,11.4,15.4,31,0.00,,,0.00,VWS V13.01,2013-05-19 17:34:00,
2013-05-19 12:35:00,75.0,42.4,0.00,South,182,13.2,13.2,31,0.00,,,0.00,VWS V13.01,2013-05-19 17:35:00,
2013-05-19 12:36:00,75.0,42.4,0.00,South,179,12.8,13.2,31,0.00,,,0.00,VWS V13.01,2013-05-19 17:36:00,
2013-05-19 12:37:00,75.0,42.4,0.00,SSE,160,13.2,15.4,31,0.00,,,0.00,VWS V13.01,2013-05-19 17:37:00,
2013-05-19 12:38:00,75.0,42.4,0.00,SE,138,15.4,15.4,31,0.00,,,0.00,VWS V13.01,2013-05-19 17:38:00,
2013-05-19 12:39:00,75.0,42.4,0.00,South,172,15.4,16.8,31,0.00,,,0.00,VWS V13.01,2013-05-19 17:39:00,
2013-05-19 12:40:00,75.2,42.5,0.00,SSE,166,15.0,15.0,31,0.00,,,0.00,VWS V13.01,2013-05-19 17:40:00,
2013-05-19 12:41:00,75.2,42.5,0.00,South,179,15.0,15.0,31,0.00,,,0.00,VWS V13.01,2013-05-19 17:41:00,
2013-05-19 12:42:00,75.4,42.7,0.00,SSE,147,16.3,16.8,31,0.00,,,0.00,VWS V13.01,2013-05-19 17:42:00,
2013-05-19 12:43:00,75.6,42.8,0.00,SSE,165,12.8,16.3,31,0.00,,,0.00,VWS V13.01,2013-05-19 17:43:00,
2013-05-19 12:44:00,75.6,42.8,0.00,SSE,168,12.8,12.8,31,0.00,,,0.00,VWS V13.01,2013-05-19 17:44:00,
2013-05-19 12:45:00,75.6,42.8,0.00,SE,142,17.0,17.0,31,0.00,,,0.00,VWS V13.01,2013-05-19 17:45:00,
2013-05-19 12:46:00,75.6,42.8,0.00,SE,139,12.8,17.0,31,0.00,,,0.00,VWS V13.01,2013-05-19 17:46:00,
2013-05-19 12:47:00,75.6,42.8,0.00,South,190,8.3,12.8,31,0.00,,,0.00,VWS V13.01,2013-05-19 17:47:00,
2013-05-19 12:48:00,75.6,42.8,0.00,SSW,193,13.2,18.3,31,0.00,,,0.00,VWS V13.01,2013-05-19 17:48:00,
2013-05-19 12:49:00,75.7,43.0,0.00,South,179,13.2,16.8,31,0.00,,,0.00,VWS V13.01,2013-05-19 17:49:00,
2013-05-19 12:50:00,75.6,42.8,0.00,SSW,194,15.0,17.0,31,0.00,,,0.00,VWS V13.01,2013-05-19 17:50:00,
2013-05-19 12:51:00,75.6,42.8,0.00,South,176,16.8,18.8,31,0.00,,,0.00,VWS V13.01,2013-05-19 17:51:00,
2013-05-19 12:52:00,75.7,43.0,0.00,SSE,153,15.9,16.8,31,0.00,,,0.00,VWS V13.01,2013-05-19 17:52:00,
2013-05-19 12:53:00,75.9,43.2,0.00,SSE,148,19.7,19.7,31,0.00,,,0.00,VWS V13.01,2013-05-19 17:53:00,
2013-05-19 12:54:00,75.9,43.2,0.00,SE,136,12.8,19.7,31,0.00,,,0.00,VWS V13.01,2013-05-19 17:54:00,
2013-05-19 12:55:00,75.6,42.0,0.00,SSE,157,12.3,12.3,30,0.00,,,0.00,VWS V13.01,2013-05-19 17:55:00,
2013-05-19 12:56:00,75.6,42.0,0.00,SE,127,15.0,15.0,30,0.00,,,0.00,VWS V13.01,2013-05-19 17:56:00,
2013-05-19 12:57:00,75.7,42.1,0.00,SE,141,11.0,15.0,30,0.00,,,0.00,VWS V13.01,2013-05-19 17:57:00,
2013-05-19 12:58:00,75.7,42.1,0.00,SSE,168,15.4,17.4,30,0.00,,,0.00,VWS V13.01,2013-05-19 17:58:00,
2013-05-19 12:59:00,75.7,42.1,0.00,South,169,11.0,15.4,30,0.00,,,0.00,VWS V13.01,2013-05-19 17:59:00,
2013-05-19 13:00:00,75.9,42.3,0.00,South,183,18.8,18.8,30,0.00,,,0.00,VWS V13.01,2013-05-19 18:00:00,
2013-05-19 13:01:00,76.1,41.6,0.00,South,178,17.4,18.8,29,0.00,,,0.00,VWS V13.01,2013-05-19 18:01:00,
2013-05-19 13:02:00,76.1,41.6,0.00,South,187,12.8,17.4,29,0.00,,,0.00,VWS V13.01,2013-05-19 18:02:00,
2013-05-19 13:03:00,76.1,41.6,0.00,SSW,192,13.2,16.3,29,0.00,,,0.00,VWS V13.01,2013-05-19 18:03:00,
2013-05-19 13:04:00,76.1,41.6,0.00,SSE,155,8.7,13.2,29,0.00,,,0.00,VWS V13.01,2013-05-19 18:04:00,
2013-05-19 13:05:00,75.9,41.4,0.00,SSW,202,13.2,13.2,29,0.00,,,0.00,VWS V13.01,2013-05-19 18:05:00,
2013-05-19 13:06:00,76.1,41.6,0.00,South,172,11.0,13.2,29,0.00,,,0.00,VWS V13.01,2013-05-19 18:06:00,
2013-05-19 13:07:00,76.1,41.6,0.00,South,180,13.2,13.6,29,0.00,,,0.00,VWS V13.01,2013-05-19 18:07:00,
2013-05-19 13:08:00,76.1,41.6,0.00,SSW,197,12.8,15.4,29,0.00,,,0.00,VWS V13.01,2013-05-19 18:08:00,
2013-05-19 13:09:00,76.1,41.6,0.00,South,175,8.1,12.8,29,0.00,,,0.00,VWS V13.01,2013-05-19 18:09:00,
2013-05-19 13:10:00,76.3,41.7,0.00,South,190,9.2,11.0,29,0.00,,,0.00,VWS V13.01,2013-05-19 18:10:00,
2013-05-19 13:11:00,76.3,41.7,0.00,SSW,198,10.1,12.8,29,0.00,,,0.00,VWS V13.01,2013-05-19 18:11:00,
2013-05-19 13:12:00,76.3,40.8,0.00,SSE,164,15.0,16.3,28,0.00,,,0.00,VWS V13.01,2013-05-19 18:12:00,
2013-05-19 13:13:00,76.3,40.8,0.00,South,190,8.7,15.0,28,0.00,,,0.00,VWS V13.01,2013-05-19 18:13:00,
2013-05-19 13:14:00,76.3,40.8,0.00,South,185,11.9,12.3,28,0.00,,,0.00,VWS V13.01,2013-05-19 18:14:00,
2013-05-19 13:15:00,76.5,41.9,0.00,SW,232,5.8,10.5,29,0.00,,,0.00,VWS V13.01,2013-05-19 18:15:00,
2013-05-19 13:16:00,76.5,41.9,0.00,SW,234,5.8,10.5,29,0.00,,,0.00,VWS V13.01,2013-05-19 18:16:00,
2013-05-19 13:17:00,76.6,42.0,0.00,South,185,8.1,8.3,29,0.00,,,0.00,VWS V13.01,2013-05-19 18:17:00,
2013-05-19 13:18:00,77.0,41.4,0.00,South,171,12.8,13.2,28,0.00,,,0.00,VWS V13.01,2013-05-19 18:18:00,
2013-05-19 13:19:00,77.0,40.5,0.00,South,187,8.7,13.2,27,0.00,,,0.00,VWS V13.01,2013-05-19 18:19:00,
2013-05-19 13:20:00,77.0,40.5,0.00,South,191,12.3,12.8,27,0.00,,,0.00,VWS V13.01,2013-05-19 18:20:00,
2013-05-19 13:21:00,77.0,40.5,0.00,South,188,8.7,12.8,27,0.00,,,0.00,VWS V13.01,2013-05-19 18:21:00,
2013-05-19 13:22:00,77.0,40.5,0.00,South,189,8.3,12.3,27,0.00,,,0.00,VWS V13.01,2013-05-19 18:22:00,
2013-05-19 13:23:00,76.8,41.3,0.00,South,191,10.5,13.2,28,0.00,,,0.00,VWS V13.01,2013-05-19 18:23:00,
2013-05-19 13:24:00,76.8,41.3,0.00,South,185,12.8,15.0,28,0.00,,,0.00,VWS V13.01,2013-05-19 18:24:00,
2013-05-19 13:25:00,76.8,40.3,0.00,South,173,12.8,12.8,27,0.00,,,0.00,VWS V13.01,2013-05-19 18:25:00,
2013-05-19 13:26:00,76.8,41.3,0.00,South,185,5.8,12.8,28,0.00,,,0.00,VWS V13.01,2013-05-19 18:26:00,
2013-05-19 13:27:00,76.8,41.3,0.00,South,191,3.6,7.6,28,0.00,,,0.00,VWS V13.01,2013-05-19 18:27:00,
2013-05-19 13:28:00,76.8,41.3,0.00,South,179,8.7,11.9,28,0.00,,,0.00,VWS V13.01,2013-05-19 18:28:00,
2013-05-19 13:29:00,77.0,41.4,0.00,SSW,200,10.1,12.8,28,0.00,,,0.00,VWS V13.01,2013-05-19 18:29:00,
2013-05-19 13:30:00,77.2,41.6,0.00,WSW,240,5.8,6.3,28,0.00,,,0.00,VWS V13.01,2013-05-19 18:30:00,
2013-05-19 13:31:00,77.2,41.6,0.00,South,190,8.1,8.1,28,0.00,,,0.00,VWS V13.01,2013-05-19 18:31:00,
2013-05-19 13:32:00,77.4,40.8,0.00,South,178,8.3,12.3,27,0.00,,,0.00,VWS V13.01,2013-05-19 18:32:00,
2013-05-19 13:33:00,77.5,41.0,0.00,South,183,15.4,15.4,27,0.00,,,0.00,VWS V13.01,2013-05-19 18:33:00,
2013-05-19 13:34:00,77.4,40.8,0.00,South,186,13.2,16.8,27,0.00,,,0.00,VWS V13.01,2013-05-19 18:34:00,
2013-05-19 13:35:00,77.4,39.8,0.00,SSW,197,12.8,13.2,26,0.00,,,0.00,VWS V13.01,2013-05-19 18:35:00,
2013-05-19 13:36:00,77.4,39.8,0.00,South,186,17.4,17.4,26,0.00,,,0.00,VWS V13.01,2013-05-19 18:36:00,
2013-05-19 13:37:00,77.4,39.8,0.00,South,178,12.8,17.4,26,0.00,,,0.00,VWS V13.01,2013-05-19 18:37:00,
2013-05-19 13:38:00,77.4,39.8,0.00,South,188,9.6,13.6,26,0.00,,,0.00,VWS V13.01,2013-05-19 18:38:00,
2013-05-19 13:39:00,77.4,39.8,0.00,South,183,5.8,15.4,26,0.00,,,0.00,VWS V13.01,2013-05-19 18:39:00,
2013-05-19 13:40:00,77.5,40.0,0.00,South,185,8.7,15.4,26,0.00,,,0.00,VWS V13.01,2013-05-19 18:40:00,
2013-05-19 13:41:00,77.5,40.0,0.00,SSW,196,15.4,15.4,26,0.00,,,0.00,VWS V13.01,2013-05-19 18:41:00,
2013-05-19 13:42:00,77.7,40.1,0.00,South,191,12.8,15.4,26,0.00,,,0.00,VWS V13.01,2013-05-19 18:42:00,
2013-05-19 13:43:00,77.7,40.1,0.00,South,179,4.0,12.8,26,0.00,,,0.00,VWS V13.01,2013-05-19 18:43:00,
2013-05-19 13:44:00,77.7,40.1,0.00,SSW,200,6.3,9.6,26,0.00,,,0.00,VWS V13.01,2013-05-19 18:44:00,
2013-05-19 13:45:00,78.1,40.4,0.00,SSW,204,3.1,12.3,26,0.00,,,0.00,VWS V13.01,2013-05-19 18:45:00,
2013-05-19 13:46:00,78.1,40.4,0.00,SSW,192,6.3,12.3,26,0.00,,,0.00,VWS V13.01,2013-05-19 18:46:00,
2013-05-19 13:47:00,78.3,40.6,0.00,SSW,193,5.8,11.0,26,0.00,,,0.00,VWS V13.01,2013-05-19 18:47:00,
2013-05-19 13:48:00,78.3,40.6,0.00,SSW,192,6.3,7.2,26,0.00,,,0.00,VWS V13.01,2013-05-19 18:48:00,
2013-05-19 13:49:00,78.4,40.8,0.00,South,186,8.1,10.1,26,0.00,,,0.00,VWS V13.01,2013-05-19 18:49:00,
2013-05-19 13:50:00,78.4,40.8,0.00,South,183,10.1,12.8,26,0.00,,,0.00,VWS V13.01,2013-05-19 18:50:00,
2013-05-19 13:51:00,78.3,39.6,0.00,SSE,168,12.3,12.8,25,0.00,,,0.00,VWS V13.01,2013-05-19 18:51:00,
2013-05-19 13:52:00,77.9,40.3,0.00,South,177,15.0,15.0,26,0.00,,,0.00,VWS V13.01,2013-05-19 18:52:00,
2013-05-19 13:53:00,77.9,40.3,0.00,South,182,12.8,15.0,26,0.00,,,0.00,VWS V13.01,2013-05-19 18:53:00,
2013-05-19 13:54:00,77.7,40.1,0.00,South,177,8.3,12.8,26,0.00,,,0.00,VWS V13.01,2013-05-19 18:54:00,
2013-05-19 13:55:00,77.7,41.1,0.00,South,180,6.3,6.3,27,0.00,,,0.00,VWS V13.01,2013-05-19 18:55:00,
2013-05-19 13:56:00,77.7,41.1,0.00,SSW,192,10.1,10.1,27,0.00,,,0.00,VWS V13.01,2013-05-19 18:56:00,
2013-05-19 13:57:00,77.9,40.3,0.00,South,182,15.0,15.0,26,0.00,,,0.00,VWS V13.01,2013-05-19 18:57:00,
2013-05-19 13:58:00,77.7,40.1,0.00,South,177,15.4,15.9,26,0.00,,,0.00,VWS V13.01,2013-05-19 18:58:00,
2013-05-19 13:59:00,77.7,40.1,0.00,SSW,193,8.3,15.4,26,0.00,,,0.00,VWS V13.01,2013-05-19 18:59:00,
2013-05-19 14:00:00,77.9,40.3,0.00,South,179,12.3,12.8,26,0.00,,,0.00,VWS V13.01,2013-05-19 19:00:00,
2013-05-19 14:01:00,77.9,40.3,0.00,SSW,192,13.2,13.2,26,0.00,,,0.00,VWS V13.01,2013-05-19 19:01:00,
2013-05-19 14:02:00,77.9,40.3,0.00,SSW,196,12.3,13.2,26,0.00,,,0.00,VWS V13.01,2013-05-19 19:02:00,
2013-05-19 14:03:00,77.7,40.1,0.00,South,184,12.8,15.0,26,0.00,,,0.00,VWS V13.01,2013-05-19 19:03:00,
2013-05-19 14:04:00,77.7,40.1,0.00,South,184,12.8,14.1,26,0.00,,,0.00,VWS V13.01,2013-05-19 19:04:00,
2013-05-19 14:05:00,77.5,40.0,0.00,SSW,194,10.1,11.0,26,0.00,,,0.00,VWS V13.01,2013-05-19 19:05:00,
2013-05-19 14:06:00,77.5,40.0,0.00,South,187,8.3,11.0,26,0.00,,,0.00,VWS V13.01,2013-05-19 19:06:00,
2013-05-19 14:07:00,77.5,40.0,0.00,SSE,168,5.4,8.7,26,0.00,,,0.00,VWS V13.01,2013-05-19 19:07:00,
2013-05-19 14:08:00,77.7,40.1,0.00,West,268,0.0,5.8,26,0.00,,,0.00,VWS V13.01,2013-05-19 19:08:00,
2013-05-19 14:09:00,77.9,41.3,0.00,South,189,4.5,10.1,27,0.00,,,0.00,VWS V13.01,2013-05-19 19:09:00,
2013-05-19 14:10:00,78.1,40.4,0.00,SSW,193,6.3,8.1,26,0.00,,,0.00,VWS V13.01,2013-05-19 19:10:00,
2013-05-19 14:11:00,78.3,40.6,0.00,SSW,203,5.8,8.1,26,0.00,,,0.00,VWS V13.01,2013-05-19 19:11:00,
2013-05-19 14:12:00,78.4,40.8,0.00,SSW,192,6.3,6.3,26,0.00,,,0.00,VWS V13.01,2013-05-19 19:12:00,
2013-05-19 14:13:00,78.6,41.9,0.00,South,191,4.0,6.3,27,0.00,,,0.00,VWS V13.01,2013-05-19 19:13:00,
2013-05-19 14:14:00,78.8,41.0,0.00,South,185,6.3,6.3,26,0.00,,,0.00,VWS V13.01,2013-05-19 19:14:00,
2013-05-19 14:15:00,79.2,40.3,0.00,SSW,210,3.1,3.1,25,0.00,,,0.00,VWS V13.01,2013-05-19 19:15:00,
2013-05-19 14:16:00,79.2,40.3,0.00,West,260,3.1,7.6,25,0.00,,,0.00,VWS V13.01,2013-05-19 19:16:00,
2013-05-19 14:17:00,79.3,40.5,0.00,NNW,332,0.0,3.1,25,0.00,,,0.00,VWS V13.01,2013-05-19 19:17:00,
2013-05-19 14:18:00,79.5,40.7,0.00,SSE,167,4.0,4.0,25,0.00,,,0.00,VWS V13.01,2013-05-19 19:18:00,
2013-05-19 14:19:00,79.9,41.0,0.00,WSW,258,0.0,7.6,25,0.00,,,0.00,VWS V13.01,2013-05-19 19:19:00,
2013-05-19 14:20:00,80.1,40.1,0.00,WNW,288,8.7,8.7,24,0.00,,,0.00,VWS V13.01,2013-05-19 19:20:00,
2013-05-19 14:21:00,80.2,40.2,0.00,South,181,2.7,8.7,24,0.00,,,0.00,VWS V13.01,2013-05-19 19:21:00,
2013-05-19 14:22:00,80.4,40.4,0.00,South,190,5.4,5.4,24,0.00,,,0.00,VWS V13.01,2013-05-19 19:22:00,
2013-05-19 14:23:00,80.4,40.4,0.00,South,190,2.7,8.1,24,0.00,,,0.00,VWS V13.01,2013-05-19 19:23:00,
2013-05-19 14:24:00,80.6,40.5,0.00,South,187,3.1,7.6,24,0.00,,,0.00,VWS V13.01,2013-05-19 19:24:00,
2013-05-19 14:25:00,80.6,39.4,0.00,South,171,10.5,15.0,23,0.00,,,0.00,VWS V13.01,2013-05-19 19:25:00,
2013-05-19 14:26:00,80.4,39.3,0.00,South,187,10.1,15.0,23,0.00,,,0.00,VWS V13.01,2013-05-19 19:26:00,
2013-05-19 14:27:00,80.2,39.1,0.00,South,189,13.2,13.2,23,0.00,,,0.00,VWS V13.01,2013-05-19 19:27:00,
2013-05-19 14:28:00,80.2,39.1,0.00,SSW,195,8.1,13.2,23,0.00,,,0.00,VWS V13.01,2013-05-19 19:28:00,
2013-05-19 14:29:00,80.1,39.0,0.00,WNW,292,0.0,8.1,23,0.00,,,0.00,VWS V13.01,2013-05-19 19:29:00,
2013-05-19 14:30:00,80.1,40.1,0.00,South,171,8.7,8.7,24,0.00,,,0.00,VWS V13.01,2013-05-19 19:30:00,
2013-05-19 14:31:00,80.1,39.0,0.00,SSW,195,2.7,8.7,23,0.00,,,0.00,VWS V13.01,2013-05-19 19:31:00,
2013-05-19 14:32:00,80.1,40.1,0.00,SSW,195,0.0,6.3,24,0.00,,,0.00,VWS V13.01,2013-05-19 19:32:00,
2013-05-19 14:33:00,80.1,39.0,0.00,SSE,155,2.7,4.9,23,0.00,,,0.00,VWS V13.01,2013-05-19 19:33:00,
2013-05-19 14:34:00,80.2,39.1,0.00,South,185,8.1,8.7,23,0.00,,,0.00,VWS V13.01,2013-05-19 19:34:00,
2013-05-19 14:35:00,80.2,39.1,0.00,South,185,5.4,7.6,23,0.00,,,0.00,VWS V13.01,2013-05-19 19:35:00,
2013-05-19 14:36:00,80.2,39.1,0.00,South,176,6.3,7.6,23,0.00,,,0.00,VWS V13.01,2013-05-19 19:36:00,
2013-05-19 14:37:00,80.2,39.1,0.00,South,189,6.3,8.7,23,0.00,,,0.00,VWS V13.01,2013-05-19 19:37:00,
2013-05-19 14:38:00,80.1,39.0,0.00,South,178,5.4,8.7,23,0.00,,,0.00,VWS V13.01,2013-05-19 19:38:00,
2013-05-19 14:39:00,80.1,39.0,0.00,South,191,3.6,6.3,23,0.00,,,0.00,VWS V13.01,2013-05-19 19:39:00,
2013-05-19 14:40:00,79.9,38.8,0.00,South,179,8.7,8.7,23,0.00,,,0.00,VWS V13.01,2013-05-19 19:40:00,
2013-05-19 14:41:00,79.9,38.8,0.00,South,184,9.2,10.1,23,0.00,,,0.00,VWS V13.01,2013-05-19 19:41:00,
2013-05-19 14:42:00,79.7,38.7,0.00,SSW,193,8.3,11.4,23,0.00,,,0.00,VWS V13.01,2013-05-19 19:42:00,
2013-05-19 14:43:00,79.7,38.7,0.00,South,171,7.6,11.0,23,0.00,,,0.00,VWS V13.01,2013-05-19 19:43:00,
2013-05-19 14:44:00,79.7,38.7,0.00,South,182,9.2,11.0,23,0.00,,,0.00,VWS V13.01,2013-05-19 19:44:00,
2013-05-19 14:45:00,79.7,38.7,0.00,SSE,161,7.6,11.0,23,0.00,,,0.00,VWS V13.01,2013-05-19 19:45:00,
2013-05-19 14:46:00,79.7,38.7,0.00,SSW,197,8.7,11.0,23,0.00,,,0.00,VWS V13.01,2013-05-19 19:46:00,
2013-05-19 14:47:00,79.5,38.5,0.00,South,170,13.2,13.2,23,0.00,,,0.00,VWS V13.01,2013-05-19 19:47:00,
2013-05-19 14:48:00,79.3,38.4,0.00,South,179,12.8,13.2,23,0.00,,,0.00,VWS V13.01,2013-05-19 19:48:00,
2013-05-19 14:49:00,79.3,38.4,0.00,South,174,5.4,12.8,23,0.00,,,0.00,VWS V13.01,2013-05-19 19:49:00,
2013-05-19 14:50:00,79.5,38.5,0.00,SSW,198,7.6,8.7,23,0.00,,,0.00,VWS V13.01,2013-05-19 19:50:00,
2013-05-19 14:51:00,79.5,38.5,0.00,SSW,193,8.1,8.7,23,0.00,,,0.00,VWS V13.01,2013-05-19 19:51:00,
2013-05-19 14:52:00,79.7,38.7,0.00,SSW,196,8.3,8.3,23,0.00,,,0.00,VWS V13.01,2013-05-19 19:52:00,
2013-05-19 14:53:00,79.7,38.7,0.00,SSW,193,10.1,11.0,23,0.00,,,0.00,VWS V13.01,2013-05-19 19:53:00,
2013-05-19 14:54:00,79.9,38.8,0.00,South,187,8.7,11.0,23,0.00,,,0.00,VWS V13.01,2013-05-19 19:54:00,
2013-05-19 14:55:00,79.9,38.8,0.00,South,177,7.6,10.1,23,0.00,,,0.00,VWS V13.01,2013-05-19 19:55:00,
2013-05-19 14:56:00,79.7,38.7,0.00,SSE,160,9.6,10.1,23,0.00,,,0.00,VWS V13.01,2013-05-19 19:56:00,
2013-05-19 14:57:00,79.7,38.7,0.00,WSW,251,3.1,9.6,23,0.00,,,0.00,VWS V13.01,2013-05-19 19:57:00,
2013-05-19 14:58:00,79.7,38.7,0.00,West,278,2.2,3.1,23,0.00,,,0.00,VWS V13.01,2013-05-19 19:58:00,
2013-05-19 14:59:00,79.9,39.9,0.00,West,269,0.0,2.2,24,0.00,,,0.00,VWS V13.01,2013-05-19 19:59:00,
2013-05-19 15:00:00,80.1,39.0,0.00,WSW,242,3.1,5.8,23,0.00,,,0.00,VWS V13.01,2013-05-19 20:00:00,
2013-05-19 15:01:00,80.1,39.0,0.00,South,185,7.6,8.1,23,0.00,,,0.00,VWS V13.01,2013-05-19 20:01:00,
2013-05-19 15:02:00,80.2,39.1,0.00,SSW,200,5.4,10.5,23,0.00,,,0.00,VWS V13.01,2013-05-19 20:02:00,
2013-05-19 15:03:00,80.2,39.1,0.00,South,177,10.1,13.2,23,0.00,,,0.00,VWS V13.01,2013-05-19 20:03:00,
2013-05-19 15:04:00,79.9,38.8,0.00,SSE,168,12.8,13.2,23,0.00,,,0.00,VWS V13.01,2013-05-19 20:04:00,
2013-05-19 15:05:00,79.7,38.7,0.00,South,170,10.1,10.5,23,0.00,,,0.00,VWS V13.01,2013-05-19 20:05:00,
2013-05-19 15:06:00,79.5,38.5,0.00,South,182,8.7,10.5,23,0.00,,,0.00,VWS V13.01,2013-05-19 20:06:00,
2013-05-19 15:07:00,79.5,38.5,0.00,SSE,166,9.2,11.0,23,0.00,,,0.00,VWS V13.01,2013-05-19 20:07:00,
2013-05-19 15:08:00,79.3,38.4,0.00,SSW,213,5.4,9.2,23,0.00,,,0.00,VWS V13.01,2013-05-19 20:08:00,
2013-05-19 15:09:00,79.2,38.2,0.00,South,177,3.1,5.4,23,0.00,,,0.00,VWS V13.01,2013-05-19 20:09:00,
2013-05-19 15:10:00,79.2,38.2,0.00,South,173,6.3,6.3,23,0.00,,,0.00,VWS V13.01,2013-05-19 20:10:00,
2013-05-19 15:11:00,79.2,38.2,0.00,South,176,4.9,6.3,23,0.00,,,0.00,VWS V13.01,2013-05-19 20:11:00,
2013-05-19 15:12:00,79.3,39.5,0.00,SSW,197,5.8,5.8,24,0.00,,,0.00,VWS V13.01,2013-05-19 20:12:00,
2013-05-19 15:13:00,79.3,39.5,0.00,South,179,4.0,5.8,24,0.00,,,0.00,VWS V13.01,2013-05-19 20:13:00,
2013-05-19 15:14:00,79.7,38.7,0.00,South,181,2.7,4.0,23,0.00,,,0.00,VWS V13.01,2013-05-19 20:14:00,
2013-05-19 15:15:00,80.1,39.0,0.00,SSE,167,5.8,8.7,23,0.00,,,0.00,VWS V13.01,2013-05-19 20:15:00,
2013-05-19 15:16:00,80.1,39.0,0.00,SW,226,10.1,11.0,23,0.00,,,0.00,VWS V13.01,2013-05-19 20:16:00,
2013-05-19 15:17:00,80.2,39.1,0.00,SSW,208,8.3,10.1,23,0.00,,,0.00,VWS V13.01,2013-05-19 20:17:00,
2013-05-19 15:18:00,80.4,38.1,0.00,SSW,201,6.7,10.1,22,0.00,,,0.00,VWS V13.01,2013-05-19 20:18:00,
2013-05-19 15:19:00,80.4,38.1,0.00,SSW,203,4.0,8.3,22,0.00,,,0.00,VWS V13.01,2013-05-19 20:19:00,
2013-05-19 15:20:00,80.6,38.3,0.00,South,181,3.6,8.3,22,0.00,,,0.00,VWS V13.01,2013-05-19 20:20:00,
2013-05-19 15:21:00,80.6,38.3,0.00,South,183,6.3,8.3,22,0.00,,,0.00,VWS V13.01,2013-05-19 20:21:00,
2013-05-19 15:22:00,80.8,38.4,0.00,South,169,3.1,6.3,22,0.00,,,0.00,VWS V13.01,2013-05-19 20:22:00,
2013-05-19 15:23:00,80.8,38.4,0.00,South,186,5.8,7.6,22,0.00,,,0.00,VWS V13.01,2013-05-19 20:23:00,
2013-05-19 15:24:00,81.0,38.6,0.00,South,187,6.3,6.7,22,0.00,,,0.00,VWS V13.01,2013-05-19 20:24:00,
2013-05-19 15:25:00,80.8,38.4,0.00,South,182,3.1,6.3,22,0.00,,,0.00,VWS V13.01,2013-05-19 20:25:00,
2013-05-19 15:26:00,80.8,38.4,0.00,South,176,5.4,6.3,22,0.00,,,0.00,VWS V13.01,2013-05-19 20:26:00,
2013-05-19 15:27:00,80.8,38.4,0.00,South,179,6.3,6.3,22,0.00,,,0.00,VWS V13.01,2013-05-19 20:27:00,
2013-05-19 15:28:00,80.8,38.4,0.00,South,189,3.1,6.3,22,0.00,,,0.00,VWS V13.01,2013-05-19 20:28:00,
2013-05-19 15:29:00,80.8,38.4,0.00,SSW,198,10.5,10.5,22,0.00,,,0.00,VWS V13.01,2013-05-19 20:29:00,
2013-05-19 15:30:00,80.8,38.4,0.00,South,175,7.6,8.3,22,0.00,,,0.00,VWS V13.01,2013-05-19 20:30:00,
2013-05-19 15:31:00,80.8,38.4,0.00,South,178,7.6,8.3,22,0.00,,,0.00,VWS V13.01,2013-05-19 20:31:00,
2013-05-19 15:32:00,80.8,38.4,0.00,SSE,163,9.6,9.6,22,0.00,,,0.00,VWS V13.01,2013-05-19 20:32:00,
2013-05-19 15:33:00,80.6,38.3,0.00,South,187,6.3,9.6,22,0.00,,,0.00,VWS V13.01,2013-05-19 20:33:00,
2013-05-19 15:34:00,80.4,38.1,0.00,SSW,199,4.9,6.3,22,0.00,,,0.00,VWS V13.01,2013-05-19 20:34:00,
2013-05-19 15:35:00,80.6,38.3,0.00,South,172,7.6,7.6,22,0.00,,,0.00,VWS V13.01,2013-05-19 20:35:00,
2013-05-19 15:36:00,80.6,38.3,0.00,SSE,156,5.8,7.6,22,0.00,,,0.00,VWS V13.01,2013-05-19 20:36:00,
2013-05-19 15:37:00,80.6,38.3,0.00,SSE,151,7.2,8.3,22,0.00,,,0.00,VWS V13.01,2013-05-19 20:37:00,
2013-05-19 15:38:00,80.2,38.0,0.00,SE,127,8.1,9.6,22,0.00,,,0.00,VWS V13.01,2013-05-19 20:38:00,
2013-05-19 15:39:00,80.1,37.8,0.00,SSE,154,13.6,13.6,22,0.00,,,0.00,VWS V13.01,2013-05-19 20:39:00,
2013-05-19 15:40:00,80.1,37.8,0.00,SSW,198,10.5,10.5,22,0.00,,,0.00,VWS V13.01,2013-05-19 20:40:00,
2013-05-19 15:41:00,80.1,37.8,0.00,SSW,197,9.2,10.5,22,0.00,,,0.00,VWS V13.01,2013-05-19 20:41:00,
2013-05-19 15:42:00,80.2,38.0,0.00,SE,126,8.3,11.0,22,0.00,,,0.00,VWS V13.01,2013-05-19 20:42:00,
2013-05-19 15:43:00,80.2,38.0,0.00,ESE,113,10.5,10.5,22,0.00,,,0.00,VWS V13.01,2013-05-19 20:43:00,
2013-05-19 15:44:00,80.2,38.0,0.00,South,178,8.7,12.8,22,0.00,,,0.00,VWS V13.01,2013-05-19 20:44:00,
2013-05-19 15:45:00,80.2,38.0,0.00,SE,138,8.7,10.1,22,0.00,,,0.00,VWS V13.01,2013-05-19 20:45:00,
2013-05-19 15:46:00,80.1,37.8,0.00,SSE,157,8.1,10.1,22,0.00,,,0.00,VWS V13.01,2013-05-19 20:46:00,
2013-05-19 15:47:00,80.1,37.8,0.00,ESE,123,8.7,8.7,22,0.00,,,0.00,VWS V13.01,2013-05-19 20:47:00,
2013-05-19 15:48:00,79.9,37.7,0.00,South,189,5.8,10.1,22,0.00,,,0.00,VWS V13.01,2013-05-19 20:48:00,
2013-05-19 15:49:00,79.9,37.7,0.00,South,176,6.3,6.3,22,0.00,,,0.00,VWS V13.01,2013-05-19 20:49:00,
2013-05-19 21:00:00,63.7,54.5,0.00,NW,324,0.0,0.0,72,0.00,,,0.00,VWS V13.01,2013-05-20 02:00:00,
2013-05-19 21:05:00,63.7,54.1,0.00,NNW,348,0.0,0.0,71,0.08,,,0.08,VWS V13.01,2013-05-20 02:05:00,
2013-05-19 21:10:00,63.7,53.7,0.00,North,349,0.0,0.0,70,0.08,,,0.08,VWS V13.01,2013-05-20 02:10:00,
2013-05-19 21:15:00,63.7,53.3,0.00,East,87,0.0,0.0,69,0.08,,,0.08,VWS V13.01,2013-05-20 02:15:00,
2013-05-19 21:20:00,63.7,53.3,0.00,NE,34,0.0,0.0,69,0.08,,,0.08,VWS V13.01,2013-05-20 02:20:00,
2013-05-19 21:25:00,63.7,52.9,0.00,NE,52,0.0,0.0,68,0.08,,,0.08,VWS V13.01,2013-05-20 02:25:00,
2013-05-19 21:30:00,64.0,54.8,0.00,SSE,168,11.4,11.4,72,0.08,,,0.08,VWS V13.01,2013-05-20 02:30:00,
2013-05-19 21:35:00,65.5,47.4,0.00,SE,137,15.9,15.9,52,0.08,,,0.08,VWS V13.01,2013-05-20 02:35:00,
2013-05-19 21:40:00,65.7,48.1,0.00,West,259,0.0,0.0,53,0.20,,,0.20,VWS V13.01,2013-05-20 02:40:00,
2013-05-19 21:45:00,64.6,48.1,0.00,SW,231,0.0,0.0,55,0.24,,,0.24,VWS V13.01,2013-05-20 02:45:00,
2013-05-19 21:50:00,63.9,47.9,0.00,SW,231,0.0,0.0,56,0.24,,,0.24,VWS V13.01,2013-05-20 02:50:00,
2013-05-19 21:55:00,63.7,50.4,0.00,SSE,152,0.0,3.1,62,0.24,,,0.24,VWS V13.01,2013-05-20 02:55:00,
2013-05-19 22:00:00,63.5,53.2,0.00,ESE,108,3.1,4.9,69,0.28,,,0.28,VWS V13.01,2013-05-20 03:00:00,
2013-05-19 22:05:00,63.3,53.4,0.00,East,100,0.0,0.0,70,0.20,,,0.28,VWS V13.01,2013-05-20 03:05:00,
2013-05-19 22:10:00,63.1,54.0,0.00,ESE,105,0.0,0.0,72,0.20,,,0.28,VWS V13.01,2013-05-20 03:10:00,
2013-05-19 22:15:00,63.0,53.8,0.00,NE,44,0.0,0.0,72,0.24,,,0.31,VWS V13.01,2013-05-20 03:15:00,
2013-05-19 22:20:00,63.0,53.4,0.00,North,0,0.0,0.0,71,0.24,,,0.31,VWS V13.01,2013-05-20 03:20:00,
2013-05-19 22:25:00,62.8,52.9,0.00,ESE,105,0.0,0.0,70,0.24,,,0.31,VWS V13.01,2013-05-20 03:25:00,
2013-05-19 22:30:00,62.6,52.7,0.00,ESE,107,0.0,0.0,70,0.24,,,0.31,VWS V13.01,2013-05-20 03:30:00,
2013-05-19 22:35:00,62.6,53.1,0.00,ENE,58,0.0,0.0,71,0.24,,,0.31,VWS V13.01,2013-05-20 03:35:00,
2013-05-19 22:40:00,63.0,55.3,0.00,East,98,5.4,5.8,76,0.12,,,0.31,VWS V13.01,2013-05-20 03:40:00,
2013-05-19 22:45:00,62.8,55.8,0.00,ESE,119,12.8,12.8,78,0.08,,,0.31,VWS V13.01,2013-05-20 03:45:00,
2013-05-19 22:50:00,63.0,56.3,0.00,ESE,115,11.4,11.4,79,0.12,,,0.35,VWS V13.01,2013-05-20 03:50:00,
2013-05-19 22:55:00,63.0,56.7,0.00,ESE,106,10.5,10.5,80,0.12,,,0.35,VWS V13.01,2013-05-20 03:55:00,
2013-05-19 23:00:00,63.0,57.0,0.00,ESE,123,12.8,12.8,81,0.20,,,0.47,VWS V13.01,2013-05-20 04:00:00,
2013-05-19 23:01:00,63.0,57.0,0.00,SE,142,13.2,13.2,81,0.20,,,0.47,VWS V13.01,2013-05-20 04:01:00,
2013-05-19 23:06:00,63.1,56.5,0.00,ESE,114,13.2,14.5,79,0.20,,,0.47,VWS V13.01,2013-05-20 04:06:00,
2013-05-19 23:11:00,63.1,55.8,0.00,ESE,106,12.3,12.3,77,0.20,,,0.47,VWS V13.01,2013-05-20 04:11:00,
2013-05-19 23:16:00,63.1,55.5,0.00,SE,126,9.2,9.6,76,0.16,,,0.47,VWS V13.01,2013-05-20 04:16:00,
2013-05-19 23:21:00,63.1,55.5,0.00,ESE,105,10.1,12.3,76,0.20,,,0.51,VWS V13.01,2013-05-20 04:21:00,
2013-05-19 23:26:00,63.0,55.7,0.00,ESE,117,11.0,11.0,77,0.24,,,0.55,VWS V13.01,2013-05-20 04:26:00,
2013-05-19 23:31:00,62.8,56.2,0.00,SE,134,7.6,8.7,79,0.24,,,0.55,VWS V13.01,2013-05-20 04:31:00,
2013-05-19 23:36:00,62.8,56.2,0.00,SE,142,8.1,8.7,79,0.24,,,0.55,VWS V13.01,2013-05-20 04:36:00,
2013-05-19 23:41:00,62.8,56.5,0.00,ESE,120,8.7,8.7,80,0.28,,,0.59,VWS V13.01,2013-05-20 04:41:00,
2013-05-19 23:46:00,62.8,56.5,0.00,ESE,106,4.9,6.3,80,0.31,,,0.63,VWS V13.01,2013-05-20 04:46:00,
2013-05-19 23:51:00,62.6,56.3,0.00,ENE,72,0.0,2.2,80,0.28,,,0.63,VWS V13.01,2013-05-20 04:51:00,
2013-05-19 23:56:00,62.4,56.5,0.00,ESE,109,3.6,5.8,81,0.28,,,0.63,VWS V13.01,2013-05-20 04:56:00,